User: anonymous   Login
Location: Unspecified
(33.2407°S, 0.0000°E)
Time: 02:29:44
(UTC+00:00)
Language:

Envisat - Orbit

View from above orbital plane
View from above orbital plane
View from above satellite
View from above satellite

Ground track
Ground track

The orbit data is extracted from the following two-line orbital elements,

1 27386U 02009A   19166.68608528  .00000001  00000-0  13892-4 0  9991
2 27386  98.1491 187.8666 0001267  93.6162  16.4613 14.37950679905764
Epoch (UTC): 15 June 2019 16:27:57
Eccentricity: 0.0001267
inclination: 98.1491°
perigee height: 764 km
apogee height: 766 km
right ascension of ascending node: 187.8666°
argument of perigee: 93.6162°
revolutions per day: 14.37950679
mean anomaly at epoch: 16.4613°
orbit number at epoch: 90576

The dashed part of the orbit path shows where the satellite is in the earth's shadow,  

DLR